Change the Weather History Date:

Thursday, May 24, 2012

  Actual Average Record
Temperature  
Mean Temperature 73 °F 65 °F  
Max Temperature 81 °F 77 °F 92 °F (1936)
Min Temperature 64 °F 54 °F 40 °F (2006)
Degree Days  
Heating Degree Days 0 2  
Month to date heating degree days 7 108  
Since 1 July heating degree days 3309 4420  
Cooling Degree Days 8 3  
Month to date cooling degree days 133 41  
Year to date cooling degree days 173 62  
Growing Degree Days 22 (Base 50)    
Moisture  
Dew Point 63 °F    
Average Humidity 71    
Maximum Humidity 87    
Minimum Humidity 54    
Precipitation  
Precipitation 0.09 in 0.15 in 0.54 in (2005)
Month to date precipitation 3.81 2.93  
Year to date precipitation 13.82 15.42  
Sea Level Pressure  
Sea Level Pressure 30.02 in    
Wind  
Wind Speed 2 mph (East)    
Max Wind Speed 12 mph    
Max Gust Speed 18 mph    
Visibility 5 miles    
Events Fog    
T = Trace of Precipitation, MM = Missing Value Source: NWS Daily Summary

Daily Weather History Graph

Daily Weather History Graph

Search for Another Location

Airport or City:

Trip Planner

Search our weather history database for the weather conditions in past years. The results will help you decide how hot, cold, wet, or windy it might be!

Date:

Astronomy

May. 24, 2012 Rise Set
Actual Time 5:56 AM EDT 8:25 PM EDT
Civil Twilight 5:25 AM EDT 8:56 PM EDT
Nautical Twilight 4:48 AM EDT 9:33 PM EDT
Astronomical Twilight 4:06 AM EDT 10:15 PM EDT
Moon 8:53 AM EDT (5/24) 11:25 PM EDT (5/24)
Length of Visible Light 15h 30m
Length of Day
14h 29m
Waxing Crescent, 12% of the Moon is Illuminated
May 24
Waxing Crescent
May 28
First Quarter
Jun 4
Full
Jun 11
Last Quarter
Jun 19
New

Hourly Weather History & Observations

Time (EDT) Temp. Heat Index Dew Point Humidity Pressure Visibility Wind Dir Wind Speed Gust Speed Precip Events Conditions
12:35 AM 68.0 °F - 62.6 °F 83% 29.98 in 8.0 mi Calm Calm - N/A   Overcast
12:53 AM 68.0 °F - 63.0 °F 84% 29.97 in 7.0 mi Calm Calm - N/A   Overcast
1:11 AM 66.2 °F - 62.6 °F 88% 29.99 in 8.0 mi Calm Calm - N/A   Mostly Cloudy
1:53 AM 66.9 °F - 62.1 °F 84% 29.97 in 10.0 mi Calm Calm - N/A   Mostly Cloudy
2:18 AM 66.2 °F - 62.6 °F 88% 29.98 in 1.8 mi Calm Calm - N/A   Partly Cloudy
2:30 AM 64.4 °F - 60.8 °F 88% 29.98 in 0.8 mi Calm Calm - N/A   Clear
2:40 AM 66.2 °F - 60.8 °F 83% 29.98 in 2.0 mi Calm Calm - N/A   Haze
2:48 AM 66.2 °F - 60.8 °F 83% 29.98 in 4.0 mi Calm Calm - N/A   Haze
2:51 AM 66.2 °F - 60.8 °F 83% 29.98 in 2.0 mi North 3.5 mph - N/A   Haze
2:53 AM 66.0 °F - 61.0 °F 84% 29.96 in 1.5 mi North 3.5 mph - N/A   Haze
2:58 AM 66.2 °F - 60.8 °F 83% 29.98 in 0.8 mi Calm Calm - N/A   Haze
3:19 AM 64.4 °F - 60.8 °F 88% 29.98 in 1.2 mi Calm Calm - N/A   Partly Cloudy
3:31 AM 64.4 °F - 60.8 °F 88% 29.98 in 0.8 mi Calm Calm - N/A   Haze
3:53 AM 64.9 °F - 61.0 °F 87% 29.97 in 0.2 mi Calm Calm - N/A Fog Fog
4:25 AM 64.4 °F - 60.8 °F 88% 29.98 in 1.0 mi Calm Calm - N/A   Mostly Cloudy
4:40 AM 64.4 °F - 60.8 °F 88% 29.98 in 0.5 mi Calm Calm - N/A Fog Fog
4:53 AM 64.0 °F - 60.1 °F 87% 29.97 in 0.2 mi Calm Calm - N/A Fog Fog
5:53 AM 64.0 °F - 59.0 °F 84% 30.00 in 0.2 mi Calm Calm - N/A   Haze
6:33 AM 64.4 °F - 60.8 °F 88% 30.04 in 1.0 mi ENE 4.6 mph - N/A   Overcast
6:37 AM 64.4 °F - 60.8 °F 88% 30.04 in 2.0 mi ENE 3.5 mph - N/A   Haze
6:45 AM 64.4 °F - 60.8 °F 88% 30.04 in 4.0 mi Calm Calm - N/A   Haze
6:53 AM 64.9 °F - 61.0 °F 87% 30.03 in 2.5 mi Calm Calm - N/A   Overcast
7:53 AM 66.0 °F - 61.0 °F 84% 30.04 in 2.5 mi Calm Calm - N/A   Haze
8:53 AM 66.9 °F - 62.1 °F 84% 30.06 in 2.5 mi Calm Calm - N/A   Haze
9:53 AM 69.1 °F - 63.0 °F 81% 30.07 in 2.5 mi NE 5.8 mph - N/A   Haze
10:53 AM 72.0 °F - 63.0 °F 73% 30.07 in 5.0 mi North 3.5 mph - N/A   Haze
11:27 AM 75.2 °F - 62.6 °F 65% 30.09 in 10.0 mi ENE 3.5 mph - N/A   Scattered Clouds
11:53 AM 75.9 °F - 62.1 °F 62% 30.07 in 10.0 mi Calm Calm - N/A   Mostly Cloudy
12:53 PM 77.0 °F - 63.0 °F 62% 30.07 in 10.0 mi Calm Calm - N/A   Mostly Cloudy
1:05 PM 77.0 °F - 64.4 °F 65% 30.08 in 10.0 mi Calm Calm - N/A   Mostly Cloudy
1:53 PM 78.1 °F - 64.0 °F 62% 30.06 in 10.0 mi SW 3.5 mph - N/A   Overcast
2:53 PM 79.0 °F - 64.9 °F 62% 30.05 in 10.0 mi South 9.2 mph - N/A   Mostly Cloudy
3:53 PM 80.1 °F 81.5 °F 63.0 °F 56% 30.02 in 6.0 mi Calm Calm - 0.08 in   Haze
4:53 PM 80.1 °F 82.1 °F 66.0 °F 62% 30.02 in 10.0 mi Variable 4.6 mph - N/A   Mostly Cloudy
5:53 PM 81.0 °F 82.5 °F 64.0 °F 56% 30.01 in 10.0 mi South 11.5 mph - 0.01 in   Partly Cloudy
6:53 PM 77.0 °F - 64.9 °F 66% 30.01 in 10.0 mi South 5.8 mph - N/A   Mostly Cloudy
7:53 PM 77.0 °F - 64.9 °F 66% 30.04 in 10.0 mi ESE 4.6 mph - N/A   Overcast
8:53 PM 75.0 °F - 64.9 °F 71% 30.04 in 10.0 mi South 5.8 mph - N/A   Partly Cloudy
9:53 PM 71.1 °F - 66.0 °F 84% 30.06 in 9.0 mi Calm Calm - N/A   Clear
10:53 PM 69.8 °F - 64.4 °F 83% 30.09 in 6.0 mi Calm Calm - N/A   Partly Cloudy
11:06 PM 71.6 °F - 66.2 °F 83% 30.09 in 7.0 mi Calm Calm - N/A   Mostly Cloudy
11:29 PM 69.8 °F - 64.4 °F 83% 30.09 in 9.0 mi Calm Calm - N/A   Scattered Clouds
11:51 PM 69.8 °F - 64.4 °F 83% 30.09 in 6.0 mi Calm Calm - N/A   Haze
11:53 PM 70.0 °F - 64.9 °F 84% 30.07 in 6.0 mi Calm Calm - N/A   Haze